Starlink 1152

operational
NORAD ID: 45096 Int'l Des: 2020-006 Owner: SPXS Country: US Constellation: starlink
LEOCIRCULAR

Über Starlink 1152

Beschreibung wird geladen...

Live-Position

3D-Globus wird geladen...

Nächste Überflüge

Höhenverlauf

Altitude vs Time

uPlot chart will show altitude changes over time

Zweizeiliger Elementsatz

1 45096U 20006BE 26036.26667775 .00028590 00000-0 85384-3 0 9990
2 45096 53.0439 358.9173 0006178 86.7812 273.3896 15.34392356332603
Epoch: 5. Feb. 2026 • Age: 5 hours

Aktueller Status

Höhe 463.4 km
Geschwindigkeit 7.64 km/s
Subsatellitenpunkt -0.30°S, 55.84°E
Startdatum 29. Jan. 2020
Alter 6 years
Typ internet

Technische Details

Klassifizierung Payload
Masse 260.00 kg
Trockenmasse 248.00 kg
Gesamtmasse 260.00 kg
Länge 0.20 m
Durchmesser 2.80 m
Spannweite 9.00 m
Form Box + pan
Hersteller SPXS
Bus-Typ Starlink
Phasenstatus In Orbit
Besitzer/Staat SPXS/US

Große Konstellationen

Loading constellations...